Weather in Terekli-Mekteb

Russia / Republic of Dagestan     44°09′58″N   45°52′20″E
temp.,
°C
wind,
m/s
gust,
m/s
humid.,
%
clouds,
%
prec.,
mm/h
press.,
hPa
HPBL,
m
16 april, fri
fri1600:00+13wnw465610 0.0 101783
03:00+12nw3460100 0.0 101859
06:00+12w346594 0.0 101972
09:00+17nw23505 0.0 1020545
12:00+21n22395 0.0 10181446
15:00+22ne32333 0.0 10171849
18:00+21e33390 0.0 101764
21:00+16se5104914 0.0 1018230
17 april, sat
sat1700:00+14se3349100 0.0 101928
03:00+13ese3452100 0.0 101863
06:00+12e375889 0.0 1018159
09:00+18e344399 0.0 1019590
12:00+21ene1236100 0.0 10181342
15:00+22nw3334100 0.0 10181864
18:00+17nw91059100 0.0 1020814
21:00+15nnw71071100 0.0 1021614
18 april, sun
sun1800:00+13n5881100 0.1 1021472
03:00+13n3481100 0.1 1021378
06:00+13nne1282100 0.0 1021224
09:00+15ene1270100 0.0 1020783
12:00+19ene335297 0.0 10181247
15:00+21e444084 0.0 10161589
18:00+19ene6745100 0.0 1017371
21:00+16se5654100 0.1 1018281
19 april, mon
mon1900:00+13sse237416 0.0 101843
03:00+13e2277100 0.0 101718
06:00+13ese347699 0.0 101789
09:00+18ese3351100 0.0 1017456
12:00+23ese5538100 0.0 1015840
15:00+25ese6535100 0.0 10131595
18:00+21ese7945100 0.0 1014437
21:00+16ese612536 0.0 1014354
20 april, tue
tue2000:00+15ese81655100 0.0 1012429
03:00+14ese9195569 0.0 1009511
06:00+14e9195898 0.0 1008518
09:00+20ese101544100 0.0 1007760
12:00+22ese131742100 0.0 1006914
15:00+22ese11144395 0.0 1005943
18:00+18ese81154100 0.0 1005670
21:00+16wnw2273100 0.8 1009115